Location: Black Forest
(43.4794°N, 75.0081°W)
Time: 04:45:06
(UTC-04:00)

ISS - All Passes

Search period start: 16 April 2014 00:00
Search period end: 26 April 2014 00:00
Orbit: 415 x 420 km, 51.6° (Epoch: 16 April)

Date Brightness Start Highest point End Pass type
(mag) Time Alt. Az. Time Alt. Az. Time Alt. Az.
16 Apr - 00:00:00 14° SSE 23:59:45 16° SSE 00:00:33 10° SSE night (unlit)
16 Apr - 16:37:31 10° SSW 16:40:35 34° SE 16:43:40 10° ENE daylight
16 Apr - 18:14:08 10° W 18:17:19 39° NNW 18:20:31 10° NE daylight
16 Apr - 19:52:08 10° NW 19:54:43 20° N 19:57:18 10° NE daylight
16 Apr - 21:29:16 10° NW 21:32:14 28° NNE 21:35:11 10° ENE visible
16 Apr - 23:05:52 10° WNW 23:09:13 68° SW 23:12:33 10° SE visible
17 Apr - 15:49:54 10° S 15:52:28 21° SE 15:55:03 10° E daylight
17 Apr - 17:25:40 10° WSW 17:28:59 57° NNW 17:32:18 10° NE daylight
17 Apr - 19:03:34 10° WNW 19:06:15 22° N 19:08:56 10° NE daylight
17 Apr - 20:41:01 10° NW 20:43:48 23° NNE 20:46:34 10° ENE visible
17 Apr - 22:17:36 10° NW 22:20:58 74° NNE 22:24:19 10° ESE visible
17 Apr - 23:55:17 10° W 23:57:21 15° SW 23:59:24 10° S visible
18 Apr - 15:02:53 10° SSE 15:04:22 12° SE 15:05:51 10° ESE daylight
18 Apr - 16:37:18 10° WSW 16:40:39 89° NNW 16:44:02 10° ENE daylight
18 Apr - 18:14:55 10° WNW 18:17:45 25° NNW 18:20:36 10° NE daylight
18 Apr - 19:52:40 10° NW 19:55:17 21° N 19:57:55 10° ENE daylight
18 Apr - 21:29:20 10° NW 21:32:37 48° NNE 21:35:53 10° ESE visible
18 Apr - 23:06:22 10° W 23:09:13 25° SW 23:12:02 10° SSE visible
19 Apr - 15:49:05 10° SW 15:52:21 55° SE 15:55:39 10° ENE daylight
19 Apr - 17:26:14 10° W 17:29:15 30° NNW 17:32:17 10° NE daylight
19 Apr - 19:04:10 10° NW 19:06:44 20° N 19:09:18 10° NE daylight
19 Apr - 20:41:03 10° NW 20:44:10 34° NNE 20:47:17 10° E visible
19 Apr - 22:17:46 10° WNW 22:20:59 42° SW 22:24:10 10° SSE visible
20 Apr - 15:01:03 10° SSW 15:04:04 32° SE 15:07:06 10° ENE daylight
20 Apr - 16:37:34 10° W 16:40:45 40° NNW 16:43:58 10° NE daylight
20 Apr - 18:15:33 10° NW 18:18:08 20° N 18:20:43 10° NE daylight
20 Apr - 19:52:43 10° NW 19:55:39 27° NNE 19:58:34 10° ENE daylight
20 Apr - 21:29:17 10° WNW 21:32:39 73° SW 21:35:59 10° SE visible
21 Apr - 14:13:19 10° S 14:15:48 19° SE 14:18:17 10° E daylight
21 Apr - 15:48:58 10° WSW 15:52:16 60° NNW 15:55:36 10° NE daylight
21 Apr - 17:26:49 10° WNW 17:29:30 22° N 17:32:12 10° NE daylight
21 Apr - 19:04:18 10° NW 19:07:02 23° N 19:09:47 10° ENE daylight
21 Apr - 20:40:52 10° NW 20:44:13 70° NNE 20:47:34 10° ESE visible
21 Apr - 22:18:25 10° W 22:20:37 16° SW 22:22:48 10° S visible
22 Apr - 13:26:21 10° SSE 13:27:33 12° SE 13:28:45 10° ESE daylight
22 Apr - 15:00:27 10° SW 15:03:48 86° SSE 15:07:09 10° ENE daylight
22 Apr - 16:38:00 10° WNW 16:40:51 25° NNW 16:43:43 10° NE daylight
22 Apr - 18:15:46 10° NW 18:18:22 20° N 18:20:59 10° ENE daylight
22 Apr - 19:52:27 10° NW 19:55:42 46° NNE 19:58:57 10° E daylight
22 Apr - 21:29:25 10° WNW 21:32:19 27° SW 21:35:12 10° SSE visible
23 Apr - 14:12:06 10° SW 14:15:20 51° SE 14:18:36 10° ENE daylight
23 Apr - 15:49:10 10° W 15:52:12 31° NNW 15:55:15 10° NE daylight
23 Apr - 17:27:06 10° NW 17:29:39 20° N 17:32:12 10° NE daylight
23 Apr - 19:04:00 10° NW 19:07:05 33° NNE 19:10:10 10° E daylight
23 Apr - 20:40:41 10° WNW 20:43:55 46° SW 20:47:08 10° SE visible
24 Apr - 13:23:57 10° SSW 13:26:54 30° SE 13:29:52 10° ENE daylight
24 Apr - 15:00:21 10° W 15:03:33 42° NNW 15:06:46 10° NE daylight
24 Apr - 16:38:19 10° NW 16:40:54 20° N 16:43:29 10° NE daylight
24 Apr - 18:15:30 10° NW 18:18:24 26° NNE 18:21:17 10° ENE daylight
24 Apr - 19:52:04 10° WNW 19:55:25 79° SW 19:58:45 10° SE daylight
24 Apr - 21:31:01 10° WSW 21:31:37 10° SW 21:32:13 10° SW visible
25 Apr - 12:36:08 10° S 12:38:29 18° SE 12:40:50 10° E daylight
25 Apr - 14:11:35 10° WSW 14:14:54 64° NNW 14:18:14 10° NE daylight
25 Apr - 15:49:24 10° WNW 15:52:06 22° N 15:54:49 10° NE daylight
25 Apr - 17:26:55 10° NW 17:29:38 22° N 17:32:20 10° ENE daylight
25 Apr - 19:03:29 10° NW 19:06:49 65° NNE 19:10:09 10° ESE daylight
25 Apr - 20:40:54 10° W 20:43:15 18° SW 20:45:34 10° S visible
